Flag for Australia Weather past 2 weeks in Hobart, Tasmania, Australia

Now
45 °F

Partly sunny.


Feels Like: 42 °F
Forecast: 40 / 57 °F
Wind: 5 mph from West

Location: Hobart Airport

Current Time: May 26, 2015 at 8:40:27 AM

Latest Report: May 26, 2015 at 8:00 AM


Visibility: N/A

Pressure: 30.30 "Hg

Humidity: 93%

Dew point: 43 °F

Location of HobartLocation

Historic Weather in Hobart — Graph

°F

Hobart temperature yesterday

Maximum temperature yesterday: 55 °F (at 12:00 PM)
Minimum temperature yesterday: 39 °F (at 2:30 AM)
Average temperature yesterday: 47 °F

Past Weeks' High & Low Weather Summary

 TemperatureHumidityPressure
High63 °F (May 19, 1:00 PM)100% (May 20, 6:00 AM)30.57 "Hg (May 20, 6:00 AM)
Low32 °F (May 23, 4:30 AM)36% (May 17, 11:00 AM)29.15 "Hg (May 12, 9:30 AM)
Average49 °F70%30.13 "Hg
* Reported May 11 7:00 AM — May 26 7:30 AM, Hobart, Weather by CustomWeather, © 2015

Note: Actual official high and low records may vary slightly from our data, if they occured in-between our weather recording intervals... More about our weather records

Advertising

Hobart weather history for previous 24 hours

 ConditionsComfort  
Time TempWeatherWind HumidityBarometerVisibility
7:30 AM
Tue, May 26
46 °FPartly sunny.5 mph93%30.30 "HgN/A
6:30 AM46 °FScattered clouds.6 mph87%30.30 "HgN/A
6:00 AM48 °FPassing clouds.No wind87%30.27 "HgN/A
5:30 AM48 °FPassing clouds.5 mph82%30.27 "HgN/A
5:00 AM48 °FPassing clouds.6 mph82%30.27 "HgN/A
4:30 AM48 °FPassing clouds.6 mph82%30.27 "HgN/A
4:00 AM50 °FMostly cloudy.2 mph76%30.27 "HgN/A
3:30 AM50 °FPassing clouds.7 mph76%30.27 "HgN/A
3:00 AM52 °FPassing clouds.8 mph72%30.27 "HgN/A
2:30 AM50 °FPassing clouds.6 mph71%30.27 "HgN/A
2:00 AM50 °FPassing clouds.7 mph71%30.27 "HgN/A
1:30 AM50 °FPassing clouds.3 mph71%30.27 "HgN/A
1:00 AM48 °FPassing clouds.7 mph76%30.27 "HgN/A
12:30 AM50 °FPassing clouds.7 mph71%30.27 "HgN/A
12:00 AM52 °FPassing clouds.6 mph67%30.27 "HgN/A
11:30 PM
Mon, May 25
50 °FPassing clouds.6 mph71%30.27 "HgN/A
11:00 PM48 °FPassing clouds.8 mph76%30.27 "HgN/A
10:30 PM46 °FPassing clouds.7 mph82%30.27 "HgN/A
10:00 PM48 °FPassing clouds.7 mph71%30.27 "HgN/A
9:00 PM46 °FPartly cloudy.10 mph82%30.27 "HgN/A
8:30 PM48 °FClear.7 mph76%30.27 "HgN/A
8:00 PM48 °FPassing clouds.10 mph76%30.30 "HgN/A
7:30 PM50 °FPassing clouds.12 mph71%30.30 "HgN/A
7:00 PM48 °FPassing clouds.9 mph82%30.30 "HgN/A
6:30 PM50 °FPassing clouds.8 mph76%30.30 "HgN/A
6:00 PM52 °FPassing clouds.8 mph67%30.30 "HgN/A
5:30 PM52 °FPassing clouds.7 mph67%30.27 "HgN/A
5:00 PM52 °FPassing clouds.6 mph67%30.27 "HgN/A
4:30 PM52 °FPassing clouds.6 mph72%30.27 "HgN/A
4:00 PM54 °FPassing clouds.7 mph63%30.27 "HgN/A
3:30 PM54 °FPartly sunny.9 mph63%30.30 "HgN/A
3:00 PM54 °FPartly sunny.9 mph63%30.30 "HgN/A
2:30 PM54 °FPartly sunny.9 mph63%30.30 "HgN/A
1:30 PM54 °FPartly sunny.13 mph63%30.30 "HgN/A
1:00 PM54 °FPartly sunny.13 mph63%30.30 "HgN/A
12:30 PM54 °FPartly sunny.10 mph58%30.30 "HgN/A
12:00 PM55 °FPassing clouds.12 mph55%30.33 "HgN/A
11:30 AM54 °FPassing clouds.14 mph58%30.33 "HgN/A
11:00 AM52 °FPassing clouds.13 mph62%30.36 "HgN/A
10:30 AM50 °FPassing clouds.8 mph67%30.36 "HgN/A
10:00 AM48 °FScattered clouds.8 mph71%30.36 "HgN/A
9:30 AM45 °FScattered clouds.8 mph76%30.36 "HgN/A
9:00 AM43 °FScattered clouds.7 mph81%30.36 "HgN/A
8:30 AM43 °FPartly sunny.7 mph81%30.36 "HgN/A
8:00 AM45 °FPartly sunny.9 mph76%30.36 "HgN/A
Weather by CustomWeather, © 2015

See weather overviewHow to use our weather pages